Location: Cadeilhan
(42.8161°N, 0.3161°E)
Time: 18:25:27
(UTC+00:00)

USA 229 - Pass Details

Date: 18 February 2020
Orbit: 986 x 1226 km, 63.4° (Epoch: 26 March)

Event Time Altitude Azimuth Distance (km) Brightness Sun altitude
Exits shadow 04:41:13 46° 246° (WSW) 1,551 4.1 -24.7°
Maximum altitude 04:41:20 46° 244° (WSW) 1,551 4.1 -24.7°
Drops below altitude 10° 04:48:30 10° 174° (S) 3,159 6.2 -23.4°
Sets 04:51:24 0° 168° (SSE) 4,131 6.9 -22.9°
